Weather History for KFEP - February, 2013

Change the Weather History Date:

Tuesday, February 5, 2013

  Actual Average (WUND) Record (WUND)
Temperature  
Mean Temperature 20 °F -  
Max Temperature 33 °F - - (-1)
Min Temperature 8 °F - - (-1)
Degree Days  
Heating Degree Days 44    
Moisture  
Dew Point 19 °F    
Average Humidity 80    
Maximum Humidity 88    
Minimum Humidity 66    
Precipitation  
Precipitation 0.00 in - - ()
Sea Level Pressure  
Sea Level Pressure 29.90 in    
Wind  
Wind Speed 8 mph (SW)    
Max Wind Speed 17 mph    
Max Gust Speed 25 mph    
Visibility 8 miles    
Events Snow    
Averages and records for this station are not official NWS values.
T = Trace of Precipitation, MM = Missing Value Source: NWS Daily Summary

Daily Weather History Graph

Daily Weather History Graph

Search for Another Location

Airport or City:

Trip Planner

Search our weather history database for the weather conditions in past years. The results will help you decide how hot, cold, wet, or windy it might be!

Date:

Astronomy

Feb. 05, 2013 Rise Set
Actual Time 7:06 AM CST 5:18 PM CST
Civil Twilight 6:37 AM CST 5:47 PM CST
Nautical Twilight 6:04 AM CST 6:21 PM CST
Astronomical Twilight 5:31 AM CST 6:53 PM CST
Moon 2:50 AM CST (2/5) 12:33 PM CST (2/5)
Length of Visible Light 11h 10m
Length of Day
10h 11m
Waning Crescent, 26% of the Moon is Illuminated
Feb 5
Waning Crescent
Feb 10
New
Feb 17
First Quarter
Feb 25
Full
Mar 4
Last Quarter

Hourly Weather History & Observations

Time (CST) Temp. Windchill Dew Point Humidity Pressure Visibility Wind Dir Wind Speed Gust Speed Precip Events Conditions
12:35 AM 10.4 °F 2.2 °F 1.9 °F 69% 29.93 in 10.0 mi SE 4.6 mph - N/A   Clear
12:55 AM 9.1 °F 0.8 °F 0.1 °F 67% 29.93 in 10.0 mi SSE 4.6 mph - N/A   Clear
1:15 AM 8.1 °F -0.5 °F -1.1 °F 66% 29.94 in 10.0 mi South 4.6 mph - N/A   Clear
1:35 AM 8.8 °F -1.1 °F -0.0 °F 67% 29.92 in 10.0 mi SSE 5.8 mph - N/A   Clear
1:55 AM 9.0 °F -2.2 °F 1.2 °F 71% 29.92 in 10.0 mi SSE 6.9 mph - N/A   Clear
2:15 AM 8.4 °F -2.8 °F 0.5 °F 70% 29.90 in 10.0 mi SSE 6.9 mph - N/A   Clear
2:35 AM 9.3 °F -2.8 °F 1.4 °F 70% 29.91 in 10.0 mi South 8.1 mph - N/A   Clear
2:55 AM 11.1 °F 0.4 °F 2.3 °F 68% 29.90 in 10.0 mi SSE 6.9 mph - N/A   Clear
3:15 AM 11.1 °F -2.4 °F 2.8 °F 69% 29.89 in 10.0 mi SSE 10.4 mph - N/A   Scattered Clouds
3:35 AM 11.1 °F 0.4 °F 2.8 °F 69% 29.89 in 10.0 mi South 6.9 mph - N/A   Mostly Cloudy
3:55 AM 13.8 °F - 4.5 °F 66% 29.90 in 10.0 mi Calm Calm - N/A   Overcast
4:15 AM 13.6 °F 4.6 °F 5.2 °F 69% 29.89 in 10.0 mi SSW 5.8 mph - N/A   Overcast
4:35 AM 14.9 °F 6.1 °F 6.8 °F 70% 29.89 in 10.0 mi SSW 5.8 mph - N/A   Overcast
4:55 AM 16.2 °F 6.5 °F 10.6 °F 79% 29.88 in 3.0 mi South 6.9 mph - N/A Snow Light Snow
5:15 AM 16.2 °F 3.9 °F 12.0 °F 84% 29.86 in 4.0 mi South 10.4 mph - N/A Snow Light Snow
5:35 AM 16.2 °F 4.7 °F 12.7 °F 86% 29.86 in 3.0 mi SSE 9.2 mph - N/A Snow Light Snow
5:55 AM 16.2 °F 6.5 °F 12.9 °F 87% 29.86 in 5.0 mi SSE 6.9 mph - N/A Snow Light Snow
6:15 AM 18.5 °F 6.8 °F 15.3 °F 87% 29.86 in 7.0 mi South 10.4 mph - N/A Snow Light Snow
6:35 AM 18.5 °F 5.5 °F 15.3 °F 87% 29.84 in 10.0 mi SSE 12.7 mph - N/A   Overcast
6:55 AM 18.5 °F 7.5 °F 15.4 °F 88% 29.84 in 10.0 mi South 9.2 mph - N/A   Overcast
7:15 AM 18.5 °F 6.1 °F 15.4 °F 88% 29.83 in 10.0 mi SSE 11.5 mph - N/A   Mostly Cloudy
7:35 AM 18.5 °F 6.1 °F 15.3 °F 87% 29.83 in 10.0 mi South 11.5 mph - N/A   Scattered Clouds
7:55 AM 18.5 °F 4.9 °F 15.3 °F 87% 29.82 in 10.0 mi South 13.8 mph - N/A   Mostly Cloudy
8:15 AM 18.9 °F 5.9 °F 15.3 °F 86% 29.83 in 10.0 mi South 12.7 mph - N/A   Scattered Clouds
8:35 AM 18.9 °F 5.3 °F 15.4 °F 87% 29.82 in 7.0 mi South 13.8 mph - N/A   Clear
8:55 AM 21.2 °F 8.3 °F 17.6 °F 86% 29.81 in 7.0 mi South 13.8 mph - N/A   Clear
9:15 AM 22.6 °F 10.7 °F 19.0 °F 86% 29.81 in 7.0 mi SSW 12.7 mph - N/A   Mostly Cloudy
9:35 AM 23.7 °F 11.5 °F 20.1 °F 86% 29.81 in 7.0 mi SSW 13.8 mph 19.6 mph N/A   Overcast
9:55 AM 23.7 °F 10.1 °F 20.3 °F 87% 29.79 in 5.0 mi SSW 17.3 mph - N/A   Overcast
10:15 AM 24.3 °F 11.7 °F 20.8 °F 87% 29.81 in 5.0 mi SSW 15.0 mph 21.9 mph N/A   Overcast
10:35 AM 24.8 °F 14.6 °F 21.6 °F 87% 29.82 in 5.0 mi SSW 10.4 mph - N/A   Overcast
10:55 AM 26.1 °F 17.6 °F 22.3 °F 86% 29.82 in 5.0 mi SSW 8.1 mph - N/A   Overcast
11:15 AM 26.4 °F 17.3 °F 22.1 °F 84% 29.82 in 5.0 mi SW 9.2 mph - N/A   Overcast
11:35 AM 27.3 °F 16.6 °F 23.0 °F 84% 29.80 in 3.0 mi SW 12.7 mph 18.4 mph N/A Snow Light Snow
11:55 AM 27.5 °F 17.4 °F 23.4 °F 84% 29.81 in 2.5 mi SW 11.5 mph - N/A Snow Light Snow
12:15 PM 27.1 °F 18.2 °F 23.9 °F 88% 29.81 in 0.5 mi SW 9.2 mph - N/A Snow Snow
12:35 PM 27.1 °F 17.5 °F 24.1 °F 88% 29.81 in 0.8 mi SW 10.4 mph - N/A Snow Light Snow
12:55 PM 27.5 °F 18.0 °F 24.4 °F 88% 29.81 in 1.2 mi WSW 10.4 mph - N/A Snow Light Snow
1:15 PM 28.8 °F 19.0 °F 25.3 °F 87% 29.81 in 4.0 mi SW 11.5 mph 16.1 mph N/A   Overcast
1:35 PM 28.8 °F 18.4 °F 24.8 °F 85% 29.81 in 5.0 mi WSW 12.7 mph - N/A   Overcast
1:55 PM 29.1 °F 18.4 °F 25.0 °F 85% 29.82 in 3.0 mi WSW 13.8 mph - N/A Snow Light Snow
2:15 PM 29.3 °F 19.6 °F 25.5 °F 86% 29.82 in 5.0 mi WSW 11.5 mph - N/A   Overcast
2:35 PM 31.3 °F 21.6 °F 26.8 °F 83% 29.84 in 7.0 mi West 12.7 mph - N/A   Overcast
2:55 PM 30.4 °F 20.5 °F 25.9 °F 83% 29.86 in 7.0 mi West 12.7 mph - N/A   Overcast
3:15 PM 29.8 °F 18.0 °F 25.7 °F 85% 29.87 in 5.0 mi West 17.3 mph 25.3 mph N/A   Haze
3:35 PM 28.9 °F 18.2 °F 24.8 °F 84% 29.88 in 7.0 mi West 13.8 mph 25.3 mph N/A   Overcast
3:55 PM 30.0 °F 20.0 °F 25.7 °F 84% 29.89 in 7.0 mi West 12.7 mph - N/A   Overcast
4:15 PM 30.9 °F 22.8 °F 26.6 °F 84% 29.91 in 7.0 mi WNW 9.2 mph - N/A   Overcast
4:35 PM 31.5 °F 22.9 °F 26.6 °F 82% 29.91 in 10.0 mi West 10.4 mph - N/A   Overcast
4:55 PM 31.5 °F 24.2 °F 27.0 °F 83% 29.91 in 7.0 mi West 8.1 mph - N/A   Overcast
5:15 PM 31.5 °F 24.2 °F 26.6 °F 82% 29.92 in 10.0 mi West 8.1 mph - N/A   Overcast
5:35 PM 31.5 °F 23.5 °F 26.6 °F 82% 29.94 in 10.0 mi West 9.2 mph - N/A   Overcast
5:55 PM 31.5 °F 24.9 °F 26.6 °F 82% 29.95 in 10.0 mi West 6.9 mph - N/A   Overcast
6:15 PM 32.2 °F 24.4 °F 27.9 °F 84% 29.96 in 10.0 mi West 9.2 mph - N/A   Overcast
6:35 PM 33.8 °F 25.8 °F 28.9 °F 82% 29.96 in 10.0 mi West 10.4 mph - N/A   Overcast
6:55 PM 33.8 °F 26.4 °F 28.4 °F 81% 29.98 in 10.0 mi West 9.2 mph - N/A   Overcast
7:15 PM 33.8 °F 25.3 °F 28.4 °F 81% 29.98 in 10.0 mi West 11.5 mph - N/A   Overcast
7:35 PM 33.8 °F 26.4 °F 28.0 °F 79% 30.00 in 10.0 mi West 9.2 mph - N/A   Overcast
7:55 PM 33.8 °F 27.7 °F 26.6 °F 75% 30.00 in 10.0 mi WNW 6.9 mph - N/A   Overcast
8:15 PM 31.5 °F 25.8 °F 24.8 °F 76% 30.00 in 10.0 mi WNW 5.8 mph - N/A   Overcast
8:35 PM 31.5 °F 26.8 °F 25.3 °F 78% 30.01 in 10.0 mi WNW 4.6 mph - N/A   Overcast
8:55 PM 31.5 °F 28.1 °F 25.7 °F 79% 30.02 in 10.0 mi WNW 3.5 mph - N/A   Overcast
9:15 PM 31.5 °F 24.9 °F 26.1 °F 80% 30.03 in 10.0 mi NW 6.9 mph - N/A   Overcast
9:35 PM 31.5 °F 21.8 °F 25.2 °F 78% 30.04 in 10.0 mi NW 12.7 mph - N/A   Overcast
9:55 PM 31.5 °F 22.3 °F 23.4 °F 72% 30.05 in 10.0 mi WNW 11.5 mph - N/A   Overcast
10:15 PM 29.8 °F 23.0 °F 22.8 °F 75% 30.06 in 10.0 mi WNW 6.9 mph - N/A   Overcast
10:35 PM 29.3 °F 22.3 °F 22.1 °F 75% 30.07 in 10.0 mi NW 6.9 mph - N/A   Overcast
10:55 PM 28.8 °F 21.7 °F 21.4 °F 74% 30.07 in 10.0 mi WNW 6.9 mph - N/A   Overcast
11:15 PM 28.8 °F 23.7 °F 21.7 °F 75% 30.08 in 10.0 mi WNW 4.6 mph - N/A   Overcast
11:35 PM 28.0 °F 21.7 °F 21.2 °F 76% 30.08 in 10.0 mi NW 5.8 mph - N/A   Overcast
11:55 PM 27.5 °F - 20.5 °F 75% 30.10 in 10.0 mi Calm Calm - N/A   Overcast